Change the Weather History Date:

Tuesday, December 27, 2011

  Actual Average Record
Temperature  
Mean Temperature 60 °F -  
Max Temperature 69 °F 65 °F 78 °F (2007)
Min Temperature 50 °F 41 °F 26 °F (2004)
Degree Days  
Heating Degree Days 5    
Growing Degree Days 10 (Base 50)    
Moisture  
Dew Point 52 °F    
Average Humidity 75    
Maximum Humidity 88    
Minimum Humidity 63    
Precipitation  
Precipitation 0.00 in - - ()
Sea Level Pressure  
Sea Level Pressure 30.01 in    
Wind  
Wind Speed 9 mph (West)    
Max Wind Speed 18 mph    
Max Gust Speed 28 mph    
Visibility 9 miles    
Events      
Averages and records for this station are not official NWS values.
T = Trace of Precipitation, MM = Missing Value Source: NWS Daily Summary

Daily Weather History Graph

Daily Weather History Graph

Search for Another Location

Airport or City:

Trip Planner

Search our weather history database for the weather conditions in past years. The results will help you decide how hot, cold, wet, or windy it might be!

Date:

Astronomy

Dec. 27, 2011 Rise Set
Actual Time 7:21 AM EST 5:38 PM EST
Civil Twilight 6:55 AM EST 6:04 PM EST
Nautical Twilight 6:25 AM EST 6:34 PM EST
Astronomical Twilight 5:56 AM EST 7:03 PM EST
Moon 9:28 AM EST (12/27) 8:55 PM EST (12/27)
Length of Visible Light 11h 09m
Length of Day
10h 17m
Waxing Crescent, 11% of the Moon is Illuminated
Dec 27
Waxing Crescent
Jan 1
First Quarter
Jan 9
Full
Jan 16
Last Quarter
Jan 23
New

Hourly Weather History & Observations

Time (EST) Temp. Dew Point Humidity Pressure Visibility Wind Dir Wind Speed Gust Speed Precip Events Conditions
7:50 AM 66.2 °F 60.8 °F 83% 30.03 in 3.0 mi WSW 6.9 mph - N/A   Mostly Cloudy
8:50 AM 64.4 °F 60.8 °F 88% 30.03 in 3.0 mi South 8.1 mph - N/A   Mostly Cloudy
9:50 AM 66.2 °F 62.6 °F 88% 30.02 in 7.0 mi South 10.4 mph - N/A   Mostly Cloudy
10:50 AM 68.0 °F 62.6 °F 83% 30.01 in 3.0 mi SSW 12.7 mph - N/A   Mostly Cloudy
11:15 AM 68.0 °F 64.4 °F 88% 30.00 in 3.0 mi West 6.9 mph - N/A   Overcast
11:50 AM 69.8 °F 64.4 °F 83% 29.99 in 6.0 mi WNW 8.1 mph - N/A   Overcast
12:30 PM 66.2 °F 62.6 °F 88% 29.97 in 10.0 mi WNW 6.9 mph - N/A   Mostly Cloudy
12:50 PM 68.0 °F 60.8 °F 78% 29.95 in 10.0 mi West 10.4 mph - N/A   Overcast
1:50 PM 68.0 °F 55.4 °F 64% 29.92 in 10.0 mi West 12.7 mph 17.3 mph N/A   Overcast
2:50 PM 66.2 °F 53.6 °F 64% 29.91 in 10.0 mi West 13.8 mph 20.7 mph N/A   Scattered Clouds
3:50 PM 66.2 °F 55.4 °F 68% 29.92 in 10.0 mi West 11.5 mph 20.7 mph N/A   Scattered Clouds
4:50 PM 64.4 °F 51.8 °F 64% 29.94 in 10.0 mi West 11.5 mph 20.7 mph N/A   Scattered Clouds
5:50 PM 60.8 °F 48.2 °F 63% 29.96 in 10.0 mi West 9.2 mph - N/A   Clear
6:50 PM 57.2 °F 48.2 °F 72% 29.98 in 10.0 mi West 10.4 mph - N/A   Clear
7:55 PM 55.4 °F 48.2 °F 77% 30.00 in 10.0 mi West 6.9 mph - N/A   Clear
8:15 PM 55.4 °F 46.4 °F 72% 30.00 in 10.0 mi West 5.8 mph - N/A   Clear
8:35 PM 55.4 °F 46.4 °F 72% 30.01 in 10.0 mi West 5.8 mph - N/A   Clear
8:55 PM 55.4 °F 46.4 °F 72% 30.01 in 10.0 mi WSW 6.9 mph - N/A   Clear
9:15 PM 55.4 °F 46.4 °F 72% 30.02 in 10.0 mi West 6.9 mph - N/A   Clear
9:35 PM 55.4 °F 46.4 °F 72% 30.03 in 10.0 mi West 5.8 mph - N/A   Clear
9:55 PM 55.4 °F 46.4 °F 72% 30.04 in 10.0 mi West 5.8 mph - N/A   Clear
10:15 PM 55.4 °F 46.4 °F 72% 30.05 in 10.0 mi WNW 9.2 mph 16.1 mph N/A   Clear
10:35 PM 53.6 °F 46.4 °F 77% 30.06 in 10.0 mi WNW 9.2 mph - N/A   Clear
10:55 PM 53.6 °F 44.6 °F 72% 30.08 in 10.0 mi NW 9.2 mph - N/A   Clear
11:15 PM 51.8 °F 44.6 °F 76% 30.09 in 10.0 mi NNW 12.7 mph 18.4 mph N/A   Scattered Clouds
11:35 PM - - N/A% 30.10 in 10.0 mi NW 18.4 mph 27.6 mph N/A   Partly Cloudy
11:55 PM 50.0 °F 39.2 °F 66% 30.11 in 10.0 mi NW 11.5 mph - N/A   Clear